Time,TemperatureF,DewpointF,PressureIn,WindDirection,WindDirectionDegrees,WindSpeedMPH,WindSpeedGustMPH,Humidity,HourlyPrecipIn,Conditions,Clouds,dailyrainin,SolarRadiationWatts/m^2,SoftwareType,DateUTC
2013-02-25 00:22:00,50.0,49.0,-100.00,East,81,0.0,3.0,98,0.00,,,0.00,0.000000,,2013-02-25 05:22:00,
2013-02-25 00:32:00,50.0,49.0,-100.00,East,81,0.0,3.0,98,0.00,,,0.00,0.000000,,2013-02-25 05:32:00,
2013-02-25 00:42:00,50.0,49.0,-100.00,East,81,0.0,3.0,98,0.00,,,0.00,0.000000,,2013-02-25 05:42:00,
2013-02-25 00:52:00,50.0,49.0,-100.00,East,81,0.0,3.0,98,0.00,,,0.00,0.000000,,2013-02-25 05:52:00,
2013-02-25 01:21:00,50.0,50.0,-100.00,ENE,59,3.0,4.0,99,0.00,,,0.00,0.000000,,2013-02-25 06:21:00,
2013-02-25 01:32:00,50.0,50.0,-100.00,ENE,59,3.0,4.0,99,0.00,,,0.00,0.000000,,2013-02-25 06:32:00,
2013-02-25 01:42:00,50.0,50.0,-100.00,ENE,59,3.0,4.0,99,0.00,,,0.00,0.000000,,2013-02-25 06:42:00,
2013-02-25 01:51:00,50.0,50.0,-100.00,ENE,59,3.0,4.0,99,0.00,,,0.00,0.000000,,2013-02-25 06:51:00,
2013-02-25 02:11:00,50.0,50.0,-100.00,NE,40,4.0,7.0,99,0.00,,,0.00,0.000000,,2013-02-25 07:11:00,
2013-02-25 02:21:00,50.0,50.0,-100.00,NE,40,4.0,7.0,99,0.00,,,0.00,0.000000,,2013-02-25 07:21:00,
2013-02-25 02:32:00,50.0,50.0,-100.00,NE,40,4.0,7.0,99,0.00,,,0.00,0.000000,,2013-02-25 07:32:00,
2013-02-25 02:42:00,50.0,50.0,-100.00,NE,40,4.0,7.0,99,0.00,,,0.00,0.000000,,2013-02-25 07:42:00,
2013-02-25 02:51:00,50.0,50.0,-100.00,NE,40,4.0,7.0,99,0.00,,,0.00,0.000000,,2013-02-25 07:51:00,
2013-02-25 03:22:00,51.0,50.0,-100.00,NE,52,3.0,6.0,98,0.00,,,0.00,0.000000,,2013-02-25 08:22:00,
2013-02-25 03:32:00,51.0,50.0,-100.00,NE,52,3.0,6.0,98,0.00,,,0.00,0.000000,,2013-02-25 08:32:00,
2013-02-25 03:42:00,51.0,50.0,-100.00,NE,52,3.0,6.0,98,0.00,,,0.00,0.000000,,2013-02-25 08:42:00,
2013-02-25 03:52:00,51.0,50.0,-100.00,NE,52,3.0,6.0,98,0.00,,,0.00,0.000000,,2013-02-25 08:52:00,
2013-02-25 04:21:00,50.0,49.0,-100.00,East,87,2.0,5.0,98,0.00,,,0.00,0.000000,,2013-02-25 09:21:00,
2013-02-25 04:32:00,50.0,49.0,-100.00,East,87,2.0,5.0,98,0.00,,,0.00,0.000000,,2013-02-25 09:32:00,
2013-02-25 04:42:00,50.0,49.0,-100.00,East,87,2.0,5.0,98,0.00,,,0.00,0.000000,,2013-02-25 09:42:00,
2013-02-25 04:52:00,50.0,49.0,-100.00,East,87,2.0,5.0,98,0.00,,,0.00,0.000000,,2013-02-25 09:52:00,
2013-02-25 05:21:00,50.0,49.0,-100.00,NE,49,0.0,2.0,98,0.00,,,0.00,0.000000,,2013-02-25 10:21:00,
2013-02-25 05:32:00,50.0,49.0,-100.00,NE,49,0.0,2.0,98,0.00,,,0.00,0.000000,,2013-02-25 10:32:00,
2013-02-25 05:42:00,50.0,49.0,-100.00,NE,49,0.0,2.0,98,0.00,,,0.00,0.000000,,2013-02-25 10:42:00,
2013-02-25 05:52:00,50.0,49.0,-100.00,NE,49,0.0,2.0,98,0.00,,,0.00,0.000000,,2013-02-25 10:52:00,
2013-02-25 06:22:00,49.0,49.0,-100.00,NE,46,3.0,4.0,99,0.00,,,0.00,0.000000,,2013-02-25 11:22:00,
2013-02-25 06:32:00,49.0,49.0,-100.00,NE,46,3.0,4.0,99,0.00,,,0.00,0.000000,,2013-02-25 11:32:00,
2013-02-25 06:42:00,49.0,49.0,-100.00,NE,46,3.0,4.0,99,0.00,,,0.00,0.000000,,2013-02-25 11:42:00,
2013-02-25 06:52:00,49.0,49.0,-100.00,NE,46,3.0,4.0,99,0.00,,,0.00,0.000000,,2013-02-25 11:52:00,
2013-02-25 07:22:00,51.0,51.0,-100.00,North,350,1.0,4.0,99,0.00,,,0.00,0.000000,,2013-02-25 12:22:00,
2013-02-25 07:32:00,51.0,51.0,-100.00,North,350,1.0,4.0,99,0.00,,,0.00,0.000000,,2013-02-25 12:32:00,
2013-02-25 07:42:00,51.0,51.0,-100.00,North,350,1.0,4.0,99,0.00,,,0.00,0.000000,,2013-02-25 12:42:00,
2013-02-25 07:54:00,51.0,51.0,-100.00,North,350,1.0,4.0,99,0.00,,,0.00,0.000000,,2013-02-25 12:54:00,
2013-02-25 08:23:00,51.0,49.0,-100.00,NE,38,8.0,12.0,92,0.00,,,-99.99,15.000000,,2013-02-25 13:23:00,
2013-02-25 08:32:00,51.0,49.0,-100.00,NE,38,8.0,12.0,92,0.00,,,-99.99,15.000000,,2013-02-25 13:32:00,
2013-02-25 08:42:00,51.0,49.0,-100.00,NE,38,8.0,12.0,92,0.00,,,-99.99,15.000000,,2013-02-25 13:42:00,
2013-02-25 08:52:00,51.0,49.0,-100.00,NE,38,8.0,12.0,92,0.00,,,-99.99,15.000000,,2013-02-25 13:52:00,
2013-02-25 09:22:00,51.0,47.0,-100.00,NE,48,7.0,16.0,85,0.00,,,0.00,41.000000,,2013-02-25 14:22:00,
2013-02-25 09:32:00,51.0,47.0,-100.00,NE,48,7.0,16.0,85,0.00,,,0.00,41.000000,,2013-02-25 14:32:00,
2013-02-25 09:42:00,51.0,47.0,-100.00,NE,48,7.0,16.0,85,0.00,,,0.00,41.000000,,2013-02-25 14:42:00,
2013-02-25 09:52:00,51.0,47.0,-100.00,NE,48,7.0,16.0,85,0.00,,,0.00,41.000000,,2013-02-25 14:52:00,
2013-02-25 10:22:00,51.0,44.0,-100.00,NE,56,8.0,14.0,78,0.00,,,0.00,36.000000,,2013-02-25 15:22:00,
2013-02-25 10:32:00,51.0,44.0,-100.00,NE,56,8.0,14.0,78,0.00,,,0.00,36.000000,,2013-02-25 15:32:00,
2013-02-25 10:42:00,51.0,44.0,-100.00,NE,56,8.0,14.0,78,0.00,,,0.00,36.000000,,2013-02-25 15:42:00,
2013-02-25 10:52:00,51.0,44.0,-100.00,NE,56,8.0,14.0,78,0.00,,,0.00,36.000000,,2013-02-25 15:52:00,
2013-02-25 11:22:00,51.0,47.0,-100.00,ENE,61,6.0,15.0,86,0.00,,,0.00,57.000000,,2013-02-25 16:22:00,
2013-02-25 11:32:00,51.0,47.0,-100.00,ENE,61,6.0,15.0,86,0.00,,,0.00,57.000000,,2013-02-25 16:32:00,
2013-02-25 11:42:00,51.0,47.0,-100.00,ENE,61,6.0,15.0,86,0.00,,,0.00,57.000000,,2013-02-25 16:42:00,
2013-02-25 11:51:00,51.0,47.0,-100.00,ENE,61,6.0,15.0,86,0.00,,,0.00,57.000000,,2013-02-25 16:51:00,
2013-02-25 12:22:00,51.0,49.0,-100.00,NE,40,7.0,14.0,93,0.09,,,0.09,71.000000,,2013-02-25 17:22:00,
2013-02-25 12:32:00,51.0,49.0,-100.00,NE,40,7.0,14.0,93,0.09,,,0.09,71.000000,,2013-02-25 17:32:00,
2013-02-25 12:42:00,51.0,49.0,-100.00,NE,40,7.0,14.0,93,0.09,,,0.09,71.000000,,2013-02-25 17:42:00,
2013-02-25 12:52:00,51.0,49.0,-100.00,NE,40,7.0,14.0,93,0.09,,,0.09,71.000000,,2013-02-25 17:52:00,
2013-02-25 13:21:00,50.0,48.0,-100.00,NE,52,6.0,12.0,94,0.07,,,0.16,101.000000,,2013-02-25 18:21:00,
2013-02-25 13:33:00,50.0,48.0,-100.00,NE,52,6.0,12.0,94,0.07,,,0.16,101.000000,,2013-02-25 18:33:00,
2013-02-25 13:42:00,50.0,48.0,-100.00,NE,52,6.0,12.0,94,0.07,,,0.16,101.000000,,2013-02-25 18:42:00,
2013-02-25 13:51:00,50.0,48.0,-100.00,NE,52,6.0,12.0,94,0.07,,,0.16,101.000000,,2013-02-25 18:51:00,
2013-02-25 14:22:00,50.0,49.0,-100.00,NE,45,7.0,12.0,95,0.08,,,0.24,72.000000,,2013-02-25 19:22:00,
2013-02-25 14:32:00,50.0,49.0,-100.00,NE,45,7.0,12.0,95,0.08,,,0.24,72.000000,,2013-02-25 19:32:00,
2013-02-25 14:42:00,50.0,49.0,-100.00,NE,45,7.0,12.0,95,0.08,,,0.24,72.000000,,2013-02-25 19:42:00,
2013-02-25 14:52:00,50.0,49.0,-100.00,NE,45,7.0,12.0,95,0.08,,,0.24,72.000000,,2013-02-25 19:52:00,
2013-02-25 15:22:00,49.0,48.0,-100.00,NE,49,11.0,20.0,95,0.08,,,0.32,76.000000,,2013-02-25 20:22:00,
2013-02-25 15:32:00,49.0,48.0,-100.00,NE,49,11.0,20.0,95,0.08,,,0.32,76.000000,,2013-02-25 20:32:00,
2013-02-25 15:42:00,49.0,48.0,-100.00,NE,49,11.0,20.0,95,0.08,,,0.32,76.000000,,2013-02-25 20:42:00,
2013-02-25 15:52:00,49.0,48.0,-100.00,NE,49,11.0,20.0,95,0.08,,,0.32,76.000000,,2013-02-25 20:52:00,
2013-02-25 16:22:00,48.0,47.0,-100.00,NE,49,6.0,16.0,95,0.02,,,0.34,72.000000,,2013-02-25 21:22:00,
2013-02-25 16:32:00,48.0,47.0,-100.00,NE,49,6.0,16.0,95,0.02,,,0.34,72.000000,,2013-02-25 21:32:00,
2013-02-25 16:42:00,48.0,47.0,-100.00,NE,49,6.0,16.0,95,0.02,,,0.34,72.000000,,2013-02-25 21:42:00,
2013-02-25 16:52:00,48.0,47.0,-100.00,NE,49,6.0,16.0,95,0.02,,,0.34,72.000000,,2013-02-25 21:52:00,
2013-02-25 17:21:00,47.0,46.0,-100.00,NE,39,7.0,14.0,95,0.04,,,0.38,34.000000,,2013-02-25 22:21:00,
2013-02-25 17:32:00,47.0,46.0,-100.00,NE,39,7.0,14.0,95,0.04,,,0.38,34.000000,,2013-02-25 22:32:00,
2013-02-25 17:42:00,47.0,46.0,-100.00,NE,39,7.0,14.0,95,0.04,,,0.38,34.000000,,2013-02-25 22:42:00,
2013-02-25 17:51:00,47.0,46.0,-100.00,NE,39,7.0,14.0,95,0.04,,,0.38,34.000000,,2013-02-25 22:51:00,
2013-02-25 18:22:00,46.0,45.0,-100.00,East,93,7.0,14.0,96,0.06,,,0.44,12.000000,,2013-02-25 23:22:00,
2013-02-25 18:32:00,46.0,45.0,-100.00,East,93,7.0,14.0,96,0.06,,,0.44,12.000000,,2013-02-25 23:32:00,
2013-02-25 18:42:00,46.0,45.0,-100.00,East,93,7.0,14.0,96,0.06,,,0.44,12.000000,,2013-02-25 23:42:00,
2013-02-25 18:52:00,46.0,45.0,-100.00,East,93,7.0,14.0,96,0.06,,,0.44,12.000000,,2013-02-25 23:52:00,
2013-02-25 19:22:00,47.0,46.0,-100.00,NE,47,6.0,13.0,97,0.01,,,0.45,1.000000,,2013-02-26 00:22:00,
2013-02-25 19:32:00,47.0,46.0,-100.00,NE,47,6.0,13.0,97,0.01,,,0.45,1.000000,,2013-02-26 00:32:00,
2013-02-25 19:42:00,47.0,46.0,-100.00,NE,47,6.0,13.0,97,0.01,,,0.45,1.000000,,2013-02-26 00:42:00,
2013-02-25 19:52:00,47.0,46.0,-100.00,NE,47,6.0,13.0,97,0.01,,,0.45,1.000000,,2013-02-26 00:52:00,
2013-02-25 20:21:00,47.0,46.0,-100.00,NE,35,10.0,19.0,97,0.01,,,0.46,0.000000,,2013-02-26 01:21:00,
2013-02-25 20:32:00,47.0,46.0,-100.00,NE,35,10.0,19.0,97,0.01,,,0.46,0.000000,,2013-02-26 01:32:00,
2013-02-25 20:42:00,47.0,46.0,-100.00,NE,35,10.0,19.0,97,0.01,,,0.46,0.000000,,2013-02-26 01:42:00,
2013-02-25 20:52:00,47.0,46.0,-100.00,NE,35,10.0,19.0,97,0.01,,,0.46,0.000000,,2013-02-26 01:52:00,
2013-02-25 21:22:00,43.0,42.0,-100.00,North,2,12.0,23.0,95,0.00,,,0.46,0.000000,,2013-02-26 02:22:00,
2013-02-25 21:32:00,43.0,42.0,-100.00,North,2,12.0,23.0,95,0.00,,,0.46,0.000000,,2013-02-26 02:32:00,
2013-02-25 21:42:00,43.0,42.0,-100.00,North,2,12.0,23.0,95,0.00,,,0.46,0.000000,,2013-02-26 02:42:00,
2013-02-25 21:52:00,43.0,42.0,-100.00,North,2,12.0,23.0,95,0.00,,,0.46,0.000000,,2013-02-26 02:52:00,
2013-02-25 22:22:00,43.0,41.0,-100.00,NE,37,12.0,23.0,92,0.00,,,0.46,0.000000,,2013-02-26 03:22:00,
2013-02-25 22:32:00,43.0,41.0,-100.00,NE,37,12.0,23.0,92,0.00,,,0.46,0.000000,,2013-02-26 03:32:00,
2013-02-25 22:42:00,43.0,41.0,-100.00,NE,37,12.0,23.0,92,0.00,,,0.46,0.000000,,2013-02-26 03:42:00,
2013-02-25 22:52:00,43.0,41.0,-100.00,NE,37,12.0,23.0,92,0.00,,,0.46,0.000000,,2013-02-26 03:52:00,
2013-02-25 23:11:00,43.0,41.0,-100.00,ENE,62,9.0,22.0,92,0.00,,,0.46,0.000000,,2013-02-26 04:11:00,
2013-02-25 23:22:00,43.0,41.0,-100.00,ENE,62,9.0,22.0,92,0.00,,,0.46,0.000000,,2013-02-26 04:22:00,
2013-02-25 23:32:00,43.0,41.0,-100.00,ENE,62,9.0,22.0,92,0.00,,,0.46,0.000000,,2013-02-26 04:32:00,
2013-02-25 23:42:00,43.0,41.0,-100.00,ENE,62,9.0,22.0,92,0.00,,,0.46,0.000000,,2013-02-26 04:42:00,
2013-02-25 23:52:00,43.0,41.0,-100.00,ENE,62,9.0,22.0,92,0.00,,,0.46,0.000000,,2013-02-26 04:52:00,